Regional Weather Roundup
Issued by NWS Cleveland, OH

Home | Current Version | Previous Version | Graphics & Text | Print | Product List | Glossary On
Versions: 1 2 3 4 5 6 7 8 9 10 11 12 13 14 15 16 17 18 19 20 21 22 23 24 25 26 27 28 29 30 31 32 33 34 35 36 37 38 39 40 41 42 43 44 45 46 47 48 49 50
000
ASUS41 KCLE 301402
RWRCLE
OHIO REGIONAL WEATHER ROUNDUP
NATIONAL WEATHER SERVICE CLEVELAND, OH
1000 AM EDT MON MAY 30 2016

NOTE: "FAIR" INDICATES FEW OR NO CLOUDS BELOW 12,000 FEET WITH NO
SIGNIFICANT WEATHER AND/OR OBSTRUCTIONS TO VISIBILITY.

OHZ001>008-015>018-024>027-034-035-043-044-301500-
   NORTHWEST OHIO

CITY           SKY/WX    TMP DP  RH WIND       PRES   REMARKS
DEFIANCE       SUNNY     77  58  51 CALM      30.04S
FINDLAY        SUNNY     77  56  48 W9        30.03S
TOLEDO EXPRESS SUNNY     75  59  57 SW6       30.02S
TOLEDO EXEC    SUNNY     76  58  53 NW6       30.03S
LIMA           SUNNY     76  58  53 W6        30.05S
$$

OHZ009>014-019>023-028>033-038-089-301500-
   NORTHEAST OHIO

CITY           SKY/WX    TMP DP  RH WIND       PRES   REMARKS
CLE-HOPKINS    MOSUNNY   77  60  55 W7        30.04R
CLE-LAKEFRONT  SUNNY     73  61  65 W9        30.01R
CUY CO. ARPT   NOT AVBL
LORAIN-ELYRIA  SUNNY     75  60  59 NW9       30.03S
ASHTABULA      SUNNY     74  63  68 VRB5      30.03R
AKRON-CANTON   PTSUNNY   74  60  61 N6        30.04R
WOOSTER        MOSUNNY   74  59  59 NW8       30.05R
MANSFIELD      SUNNY     75  61  61 NW8       30.06R
YOUNGSTOWN     PTSUNNY   74  59  59 NW8       30.03S
$$

OHZ042-051>053-060>062-070>072-077>081-301500-
  SOUTHWEST OHIO

CITY           SKY/WX    TMP DP  RH WIND       PRES   REMARKS
CINC-COVINGTON PTSUNNY   77  63  61 N5        30.06S
CINC-LUNKEN    SUNNY     75  68  78 CALM      30.06R
HAMILTON       SUNNY     79  61  53 N3        30.07R
DAYTON         PTSUNNY   76  58  53 NW7       30.07S
WRIGHT-PAT AFB SUNNY     75  63  65 NW2       30.06R
DAYTON GENERAL SUNNY     77  59  53 N6        30.06R
WILMINGTON     SUNNY     74  62  66 N7        30.06S
$$

OHZ036-037-039>041-045>050-054>059-063>069-073>076-082>088-301500-
  CENTRAL AND SOUTHEAST OHIO

CITY           SKY/WX    TMP DP  RH WIND       PRES   REMARKS
COLUMBUS       PTSUNNY   73  61  65 N6        30.05R
OSU AIRPORT    CLOUDY    76  61  59 N3        30.05R
BOLTON FIELD   SUNNY     70  63  78 CALM      30.05R
RICKENBACK AFB NOT AVBL
NEWARK         MOSUNNY   74  60  61 NE5       30.05R
MARION         SUNNY     75  61  61 NW6       30.05S
LANCASTER      MOSUNNY   72  63  73 CALM      30.06R
ZANESVILLE     PTSUNNY   74  63  68 N3        30.06R
NEW PHILLY     SUNNY     77  60  55 VRB3      30.04S
$$




USA.gov is the U.S. government's official web portal to all federal, state and local government web resources and services.